Zurück zum Katalog

CZ-4B DEB

AktivLEO
NORAD 40531·DEBRIS·🇨🇳 China

Gestartet Oct 25, 2013 von Jiuquan Satellite Launch Center

Loading…

Nächste Überflüge (nächste 24 Stunden)

TLE

AktuellSource: Space-Track

Epoche: Sep 13, 2026, 04:12 UTC

1 40531U 13057D   26256.17529307  .00001936  00000-0  33706-3 0  9995
2 40531  74.9656  75.6511 0179366  45.0153 316.5394 14.58573471604643

Verfolge CZ-4B DEB in Echtzeit mit AllMySat

Download on the App Store